Location: Chervonnoye
(48.6000°N, 34.4000°E)
Time: 19:53:08
(UTC+00:00)

RS-44 - Pass Details

Date: 06 December 2021
Orbit: 1175 x 1510 km, 82.5° (Epoch: 19 January)

Event Time Altitude Azimuth Distance (km) Brightness Sun altitude
Rises 02:25:54 0° 354° (N) 4,154 ? -27.7°
Reaches altitude 10° 02:28:58 10° 5° (N) 3,223 ? -27.2°
Maximum altitude 02:35:34 31° 66° (ENE) 2,108 ? -26.1°
Drops below altitude 10° 02:42:31 10° 126° (SE) 3,414 ? -24.9°
Sets 02:45:50 0° 136° (SE) 4,437 ? -24.4°
